Oconto, WI

12:35 PM CDT on April 26, 2018 (GMT -0500)
Oconto Municipal

Weather History for KOCQ - May, 2013

Change the Weather History Date:

Wednesday, May 8, 2013

  Actual Average Record
Temperature  
Mean Temperature 58 °F -  
Max Temperature 78 °F 62 °F 79 °F (2015)
Min Temperature 39 °F 38 °F 24 °F (2017)
Degree Days  
Heating Degree Days 6    
Growing Degree Days 8 (Base 50)    
Moisture  
Dew Point 42 °F    
Average Humidity 56    
Maximum Humidity 97    
Minimum Humidity 25    
Precipitation  
Precipitation 0.00 in - - ()
Sea Level Pressure  
Sea Level Pressure 30.00 in    
Wind  
Wind Speed 2 mph (SSE)    
Max Wind Speed 12 mph    
Max Gust Speed 16 mph    
Visibility 10 miles    
Events      
Averages and records for this station are not official NWS values.
T = Trace of Precipitation, MM = Missing Value Source: NWS Daily Summary

Daily Weather History Graph

Daily Weather History Graph

Search for Another Location

Airport or City:

Astronomy

May. 08, 2013 Rise Set
Actual Time 5:31 AM CDT 8:05 PM CDT
Civil Twilight 4:57 AM CDT 8:39 PM CDT
Nautical Twilight 4:16 AM CDT 9:20 PM CDT
Astronomical Twilight 3:28 AM CDT 10:08 PM CDT
Moon 4:42 AM CDT (5/8) 7:01 PM CDT (5/8)
Length of Visible Light 15h 41m
Length of Day
14h 34m
Waning Crescent, 2% of the Moon is Illuminated
May 8
Waning Crescent
May 9
New
May 17
First Quarter
May 24
Full
May 31
Last Quarter

Hourly Weather History & Observations

Time (CDT) Temp. Dew Point Humidity Pressure Visibility Wind Dir Wind Speed Gust Speed Precip Events Conditions
12:15 AM 44.6 °F 40.5 °F 85% 30.01 in 10.0 mi Calm Calm - N/A   Clear
12:35 AM 44.4 °F 41.4 °F 89% 30.01 in 10.0 mi Calm Calm - N/A   Clear
12:55 AM 45.1 °F 41.5 °F 87% 30.01 in 10.0 mi Calm Calm - N/A   Clear
1:15 AM 44.1 °F 40.3 °F 87% 30.01 in 10.0 mi Calm Calm - N/A   Clear
1:35 AM 44.1 °F 41.2 °F 90% 30.01 in 10.0 mi Calm Calm - N/A   Clear
1:55 AM 43.7 °F 40.5 °F 88% 30.01 in 10.0 mi Calm Calm - N/A   Clear
2:15 AM 43.2 °F 40.5 °F 90% 30.01 in 10.0 mi Calm Calm - N/A   Clear
2:35 AM 43.3 °F 40.6 °F 90% 30.01 in 10.0 mi Calm Calm - N/A   Clear
2:55 AM 43.0 °F 40.5 °F 91% 30.01 in 10.0 mi Calm Calm - N/A   Clear
3:15 AM 41.2 °F 38.7 °F 91% 30.01 in 10.0 mi Calm Calm - N/A   Clear
3:35 AM 41.4 °F 39.7 °F 94% 30.01 in 10.0 mi Calm Calm - N/A   Clear
4:15 AM 41.4 °F 39.9 °F 95% 30.01 in 10.0 mi Calm Calm - N/A   Mostly Cloudy
4:35 AM 41.0 °F 39.6 °F 95% 30.01 in 10.0 mi Calm Calm - N/A   Scattered Clouds
4:55 AM 39.7 °F 37.9 °F 93% 30.01 in 10.0 mi Calm Calm - N/A   Clear
5:15 AM 39.9 °F 39.0 °F 97% 30.01 in 10.0 mi Calm Calm - N/A   Clear
5:35 AM 40.3 °F 39.0 °F 95% 30.02 in 10.0 mi Calm Calm - N/A   Clear
5:55 AM 39.4 °F 38.3 °F 96% 30.02 in 10.0 mi Calm Calm - N/A   Clear
6:15 AM 40.1 °F 38.5 °F 94% 30.03 in 10.0 mi Calm Calm - N/A   Clear
6:35 AM 41.4 °F 39.9 °F 95% 30.03 in 10.0 mi Calm Calm - N/A   Clear
6:55 AM 45.0 °F 43.5 °F 95% 30.04 in 10.0 mi Calm Calm - N/A   Clear
7:15 AM 48.6 °F 45.1 °F 88% 30.04 in 10.0 mi Calm Calm - N/A   Clear
7:35 AM 50.2 °F 46.4 °F 87% 30.04 in 10.0 mi Calm Calm - N/A   Scattered Clouds
7:55 AM 52.0 °F 44.1 °F 74% 30.04 in 10.0 mi Calm Calm - N/A   Clear
8:15 AM 53.4 °F 45.1 °F 74% 30.04 in 10.0 mi Calm Calm - N/A   Clear
8:35 AM 55.4 °F 42.8 °F 63% 30.04 in 10.0 mi Calm Calm - N/A   Clear
8:55 AM 58.8 °F 42.1 °F 54% 30.04 in 10.0 mi Calm Calm - N/A   Clear
9:15 AM 63.5 °F 42.1 °F 46% 30.04 in 10.0 mi Calm Calm - N/A   Clear
9:35 AM 66.6 °F 41.7 °F 40% 30.03 in 10.0 mi Calm Calm - N/A   Clear
9:55 AM 70.0 °F 43.5 °F 38% 30.03 in 10.0 mi SW 3.5 mph - N/A   Clear
10:15 AM 71.8 °F 41.2 °F 33% 30.03 in 10.0 mi SSE 3.5 mph - N/A   Clear
10:35 AM 73.0 °F 39.2 °F 29% 30.02 in 10.0 mi Calm Calm - N/A   Clear
10:55 AM 73.8 °F 40.6 °F 30% 30.02 in 10.0 mi SSE 4.6 mph - N/A   Clear
11:15 AM 74.3 °F 39.9 °F 29% 30.02 in 10.0 mi South 4.6 mph - N/A   Clear
11:35 AM 75.2 °F 39.7 °F 28% 30.02 in 10.0 mi SE 5.8 mph - N/A   Clear
11:55 AM 74.8 °F 37.6 °F 26% 30.02 in 10.0 mi South 6.9 mph - N/A   Clear
12:15 PM 75.2 °F 40.1 °F 28% 30.01 in 10.0 mi SSE 5.8 mph - N/A   Clear
12:35 PM 76.3 °F 41.2 °F 28% 30.01 in 10.0 mi SSE 8.1 mph - N/A   Clear
12:55 PM 76.6 °F 41.9 °F 29% 30.01 in 10.0 mi South 8.1 mph - N/A   Clear
1:15 PM 75.6 °F 40.6 °F 28% 30.01 in 10.0 mi South 9.2 mph - N/A   Clear
1:35 PM 76.5 °F 38.5 °F 25% 30.00 in 10.0 mi SSE 6.9 mph - N/A   Clear
1:55 PM 76.6 °F 41.7 °F 29% 30.00 in 10.0 mi South 6.9 mph - N/A   Clear
2:15 PM 77.7 °F 42.4 °F 28% 30.00 in 10.0 mi SSE 11.5 mph - N/A   Clear
2:35 PM 78.1 °F 42.6 °F 28% 29.99 in 10.0 mi SSE 9.2 mph 16.1 mph N/A   Clear
2:55 PM 77.5 °F 43.5 °F 30% 29.99 in 10.0 mi ESE 10.4 mph 16.1 mph N/A   Clear
3:15 PM 77.0 °F 43.2 °F 30% 29.99 in 10.0 mi ESE 11.5 mph - N/A   Clear
3:35 PM 77.4 °F 43.5 °F 30% 29.98 in 10.0 mi ESE 9.2 mph - N/A   Clear
3:55 PM 76.3 °F 43.0 °F 30% 29.98 in 10.0 mi East 9.2 mph - N/A   Clear
4:15 PM 75.4 °F 42.4 °F 31% 29.97 in 10.0 mi ESE 10.4 mph - N/A   Clear
4:35 PM 75.0 °F 42.1 °F 31% 29.97 in 10.0 mi SE 9.2 mph - N/A   Clear
4:55 PM 74.7 °F 42.6 °F 32% 29.97 in 10.0 mi SE 9.2 mph - N/A   Clear
5:15 PM 74.8 °F 43.5 °F 33% 29.97 in 10.0 mi SE 9.2 mph - N/A   Clear
5:35 PM 75.0 °F 42.6 °F 31% 29.97 in 10.0 mi SE 8.1 mph - N/A   Clear
5:55 PM 74.7 °F 43.2 °F 32% 29.96 in 10.0 mi SE 8.1 mph - N/A   Clear
6:15 PM 73.0 °F 42.3 °F 33% 29.96 in 10.0 mi South 5.8 mph - N/A   Clear
6:35 PM 72.1 °F 42.6 °F 34% 29.96 in 10.0 mi SSE 5.8 mph - N/A   Clear
6:55 PM 70.5 °F 43.7 °F 38% 29.96 in 10.0 mi SE 5.8 mph - N/A   Clear
7:15 PM 69.1 °F 43.9 °F 40% 29.96 in 10.0 mi SE 5.8 mph - N/A   Clear
7:35 PM 67.6 °F 43.9 °F 42% 29.96 in 10.0 mi SSE 5.8 mph - N/A   Clear
7:55 PM 66.4 °F 43.3 °F 43% 29.96 in 10.0 mi SSE 4.6 mph - N/A   Clear
8:15 PM 64.9 °F 43.3 °F 45% 29.96 in 10.0 mi South 4.6 mph - N/A   Clear
8:35 PM 64.0 °F 42.4 °F 45% 29.97 in 10.0 mi SSE 4.6 mph - N/A   Clear
8:55 PM 63.5 °F 41.4 °F 44% 29.97 in 10.0 mi SSE 4.6 mph - N/A   Clear
9:15 PM 61.5 °F 42.8 °F 50% 29.97 in 10.0 mi SSE 3.5 mph - N/A   Clear
9:35 PM 61.0 °F 43.2 °F 52% 29.97 in 10.0 mi South 3.5 mph - N/A   Clear
10:15 PM 59.0 °F 43.5 °F 56% 29.97 in 10.0 mi Calm Calm - N/A   Clear
10:35 PM 56.3 °F 43.2 °F 61% 29.97 in 10.0 mi Calm Calm - N/A   Clear
11:35 PM 52.2 °F 44.1 °F 74% 29.96 in 10.0 mi Calm Calm - N/A   Scattered Clouds
11:55 PM 50.9 °F 43.7 °F 76% 29.96 in 10.0 mi Calm Calm - N/A   Clear